Regional Weather Roundup
Issued by NWS

Home | Current Version | Previous Version | Text Only | Print | Product List | Glossary On
Versions: 1 2 3 4 5 6 7 8 9 10 11 12 13 14 15 16 17 18 19 20 21 22 23 24 25 26 27 28 29 30 31 32 33 34 35 36 37 38 39 40 41 42 43 44 45 46 47 48 49 50
000
ASUS43 KOAX 271110
RWRNE

WEATHER ROUNDUP FOR NEBRASKA
NATIONAL WEATHER SERVICE OMAHA NE
600 AM CDT MON MAR 27 2017

NOTES: SATELLITE DATA IS BEING USED TO AUGMENT CLOUD COVER ABOVE
       12000 FEET.
       "FAIR" INDICATES FEW OR NO CLOUDS BELOW 12,000 FEET WITH NO
       SIGNIFICANT WEATHER AND/OR OBSTRUCTIONS TO VISIBILITY.

  * THESE STATIONS DO NOT REPORT WEATHER SUCH AS RAIN...SNOW OR FOG.

NEZ001>004-019>022-054>056-271200-
NEBRASKA PANHANDLE

CITY           SKY/WX    TMP DP  RH WIND       PRES   REMARKS
SCOTTSBLUFF    FOG       27  25  92 N6        29.91S VSB 1   WCI  20
ALLIANCE       CLEAR     26  25  96 W5        29.91R WCI  20
CHADRON        FOG       29  27  92 CALM      29.90F VSB 1/2
KIMBALL        CLEAR     28  28 100 SW3       29.92S
SIDNEY         CLEAR     27  25  92 NW6       29.93S WCI  20
$$

NEZ057>060-069>072-079>082-271200-
SOUTHWEST NEBRASKA

CITY           SKY/WX    TMP DP  RH WIND       PRES   REMARKS
NORTH PLATTE   FOG       35  34  96 E5        29.91S VSB 1/4 WCI  31
IMPERIAL       CLEAR     35  32  88 NW6       29.91S WCI  30
LEXINGTON      FOG       34  33  95 NE3       29.93S VSB 1/4
MCCOOK         CLEAR     33  33 100 CALM      29.91F
OGALLALA       CLEAR     32  31  96 SW5       29.91F WCI  27
$$

NEZ005>010-023>029-035>040-094-271200-
NORTH CENTRAL NEBRASKA

CITY           SKY/WX    TMP DP  RH WIND       PRES   REMARKS
VALENTINE      MOCLDY    27  25  92 SW6       29.93R FOG     WCI  20
AINSWORTH      CLOUDY    33  33 100 CALM      29.92S
BROKEN BOW     CLOUDY    42  32  67 SE3       29.92S HAZE
O`NEILL        CLOUDY    41  38  88 CALM      29.95S
ORD            CLOUDY    43  39  86 CALM      29.93S
THEDFORD       FOG       39  39  99 CALM      29.92R VSB 1/4
$$

NEZ041-046>049-061>064-073>077-083>087-271200-
SOUTH CENTRAL NEBRASKA

CITY           SKY/WX    TMP DP  RH WIND       PRES   REMARKS
GRAND ISLAND   CLOUDY    43  43 100 NE6       29.95R
AURORA         CLOUDY    42  42 100 NE7       29.94R
HASTINGS       CLOUDY    44  43  96 N5        29.95R
HEBRON         CLOUDY    44  43  96 NE8       29.92S FOG
HOLDREGE       CLOUDY    42  41  97 NE5       29.94R FOG
KEARNEY *      CLOUDY    43  39  87 N5        29.95R VSB 1/4
YORK           CLOUDY    43  43 100 N8        29.94R
$$

NEZ011>018-030>034-042>045-271200-
NORTHEAST NEBRASKA

CITY           SKY/WX    TMP DP  RH WIND       PRES   REMARKS
NORFOLK        CLOUDY    42  40  92 CALM      29.94R
ALBION         CLOUDY    44  40  86 N3        29.95R
BLAIR          CLOUDY    43  41  93 N6        29.93F
FREMONT        CLOUDY    44  42  93 CALM      29.94S
TEKAMAH        CLOUDY    44  40  85 N5        29.95F
WAYNE          CLOUDY    41  41  99 NW3       29.95R
$$

NEZ050>053-065>068-078-088>093-271200-
SOUTHEAST NEBRASKA

CITY           SKY/WX    TMP DP  RH WIND       PRES   REMARKS
LINCOLN        CLOUDY    44  42  93 N8        29.94F
OMAHA EPPLEY   CLOUDY    45  41  86 N6        29.94R
BEATRICE       CLOUDY    45  44  97 N8        29.91F FOG
FALLS CITY     CLOUDY    46  43  89 N7        29.90S
NEBRASKA CITY  CLOUDY    44  43  95 N8        29.92S
PLATTSMOUTH    CLOUDY    45  40  85 N5        29.92F
$$

NEZ044-045-051>053-067-271200-
OMAHA AREA

CITY           SKY/WX    TMP DP  RH WIND       PRES   REMARKS
OMAHA EPPLEY   CLOUDY    45  41  86 N6        29.94R
BLAIR          CLOUDY    43  41  93 N6        29.93F
FREMONT        CLOUDY    44  42  93 CALM      29.94S
MILLARD        CLOUDY    46  44  90 N6        29.94F
OFFUTT AFB     CLOUDY    46  42  87 VRB6      29.93S
PLATTSMOUTH    CLOUDY    45  40  85 N5        29.92F
WAHOO          CLOUDY    43  41  93 NE8       29.94S
$$



USA.gov is the U.S. government's official web portal to all federal, state and local government web resources and services.